Weather History for San Antonio, TX

Change the Weather History Date:

Tuesday, September 10, 2013

  Actual Average Record
Temperature  
Mean Temperature 83 °F 81 °F  
Max Temperature 91 °F 92 °F 101 °F (1940)
Min Temperature 74 °F 71 °F 59 °F (2012)
Degree Days  
Heating Degree Days 0 0  
Month to date heating degree days 0 0  
Since 1 July heating degree days 0 0  
Cooling Degree Days 18 16  
Month to date cooling degree days 225 175  
Year to date cooling degree days 2818 2566  
Growing Degree Days 33 (Base 50)    
Moisture  
Dew Point 72 °F    
Average Humidity 73    
Maximum Humidity 94    
Minimum Humidity 52    
Precipitation  
Precipitation 0.18 in 0.11 in 2.17 in (1903)
Month to date precipitation 0.18 1.08  
Year to date precipitation 23.62 22.02  
Snow  
Snow 0.00 in - - ()
Month to date snowfall 0.0  
Since 1 July snowfall 0.0  
Since 1 September snowfall 0.0  
Snow Depth 0.00 in    
Sea Level Pressure  
Sea Level Pressure 29.98 in    
Wind  
Wind Speed 8 mph (ESE)    
Max Wind Speed 20 mph    
Max Gust Speed 24 mph    
Visibility 9 miles    
Events Rain    
T = Trace of Precipitation, MM = Missing Value Source: NWS Daily Summary

Daily Weather History Graph

Daily Weather History Graph

Search for Another Location

Airport:

Trip Planner

Search our weather history database for the weather conditions in past years. The results will help you decide how hot, cold, wet, or windy it might be!

Date:

Astronomy

Sep. 10, 2013 Rise Set
Actual Time 7:16 AM CDT 7:44 PM CDT
Civil Twilight 6:52 AM CDT 8:08 PM CDT
Nautical Twilight 6:24 AM CDT 8:36 PM CDT
Astronomical Twilight 5:55 AM CDT 9:05 PM CDT
Moon 12:16 PM CDT (9/10) 11:16 PM CDT (9/10)
Length of Visible Light 13h 16m
Length of Day
12h 28m
Waxing Crescent, 28% of the Moon is Illuminated
Sep 10
Waxing Crescent
Sep 12
First Quarter
Sep 19
Full
Sep 26
Last Quarter
Oct 4
New

Hourly Weather History & Observations

Time (CDT) Temp. Heat Index Dew Point Humidity Pressure Visibility Wind Dir Wind Speed Gust Speed Precip Events Conditions
12:38 AM 75.2 °F - 71.6 °F 89% 30.00 in 10.0 mi ESE 3.5 mph - N/A   Mostly Cloudy
12:51 AM 75.0 °F - 71.1 °F 87% 29.94 in 10.0 mi East 3.5 mph - N/A   Mostly Cloudy
1:17 AM 75.2 °F - 71.6 °F 89% 29.99 in 10.0 mi East 3.5 mph - N/A   Mostly Cloudy
1:51 AM 75.9 °F - 72.0 °F 87% 29.94 in 10.0 mi ESE 4.6 mph - N/A   Overcast
2:33 AM 75.2 °F - 71.6 °F 89% 30.00 in 10.0 mi East 5.8 mph - N/A   Overcast
2:51 AM 75.9 °F - 72.0 °F 87% 29.94 in 10.0 mi East 5.8 mph - N/A   Overcast
3:51 AM 75.9 °F - 73.0 °F 91% 29.94 in 10.0 mi ESE 6.9 mph - N/A   Overcast
4:51 AM 75.9 °F - 73.0 °F 91% 29.93 in 5.0 mi East 6.9 mph - 0.07 in Rain Light Rain
5:44 AM 75.2 °F - 73.4 °F 94% 29.99 in 10.0 mi East 5.8 mph - 0.00 in   Overcast
5:51 AM 75.0 °F - 73.0 °F 94% 29.94 in 10.0 mi East 5.8 mph - 0.00 in   Overcast
6:51 AM 75.0 °F - 72.0 °F 90% 29.96 in 10.0 mi East 6.9 mph - N/A   Overcast
7:03 AM 75.2 °F - 71.6 °F 89% 30.01 in 10.0 mi East 6.9 mph - N/A   Mostly Cloudy
7:18 AM 75.2 °F - 71.6 °F 89% 30.02 in 10.0 mi ESE 8.1 mph - N/A   Mostly Cloudy
7:51 AM 75.0 °F - 73.0 °F 94% 29.97 in 7.0 mi East 5.8 mph - 0.01 in Rain Light Rain
8:44 AM 75.2 °F - 73.4 °F 94% 30.04 in 3.0 mi SSE 10.4 mph - 0.02 in Rain Light Rain
8:51 AM 75.9 °F - 73.0 °F 91% 29.99 in 3.0 mi SE 6.9 mph - 0.09 in Rain Light Rain
9:22 AM 77.0 °F - 73.4 °F 89% 30.05 in 8.0 mi East 8.1 mph - 0.01 in   Overcast
9:51 AM 78.1 °F - 73.9 °F 87% 30.00 in 8.0 mi East 9.2 mph - 0.01 in   Overcast
10:31 AM 82.4 °F 88.2 °F 73.4 °F 74% 30.05 in 10.0 mi East 9.2 mph - N/A   Mostly Cloudy
10:51 AM 82.9 °F 88.8 °F 73.0 °F 72% 30.00 in 10.0 mi East 11.5 mph - N/A   Mostly Cloudy
11:51 AM 87.1 °F 93.6 °F 72.0 °F 61% 30.01 in 10.0 mi ESE 8.1 mph - 0.00 in   Mostly Cloudy
12:51 PM 89.1 °F 94.1 °F 70.0 °F 53% 29.99 in 10.0 mi East 17.3 mph 23.0 mph N/A   Mostly Cloudy
1:08 PM 84.2 °F 90.9 °F 73.4 °F 70% 30.05 in 10.0 mi South 13.8 mph - N/A   Mostly Cloudy
1:51 PM 82.0 °F 87.4 °F 73.0 °F 74% 29.99 in 10.0 mi SSW 12.7 mph - N/A   Mostly Cloudy
2:51 PM 86.0 °F 92.2 °F 72.0 °F 63% 29.97 in 10.0 mi South 8.1 mph - N/A   Mostly Cloudy
3:51 PM 90.0 °F 96.4 °F 71.1 °F 54% 29.95 in 10.0 mi SE 18.4 mph 23.0 mph N/A   Mostly Cloudy
4:51 PM 84.9 °F 89.4 °F 70.0 °F 61% 29.95 in 10.0 mi SSE 13.8 mph - N/A   Mostly Cloudy
5:44 PM 84.2 °F 89.6 °F 71.6 °F 66% 30.01 in 10.0 mi East 12.7 mph - N/A   Mostly Cloudy
5:51 PM 84.0 °F 89.0 °F 71.1 °F 65% 29.96 in 10.0 mi East 8.1 mph - N/A   Mostly Cloudy
6:51 PM 82.9 °F 88.0 °F 72.0 °F 69% 29.97 in 10.0 mi East 9.2 mph - N/A   Mostly Cloudy
7:51 PM 78.1 °F - 73.0 °F 84% 29.99 in 10.0 mi SE 9.2 mph - 0.00 in   Mostly Cloudy
8:51 PM 75.9 °F - 71.1 °F 85% 29.99 in 10.0 mi East 4.6 mph - N/A   Partly Cloudy
9:51 PM 77.0 °F - 71.1 °F 82% 30.00 in 10.0 mi Calm Calm - N/A   Scattered Clouds
10:51 PM 77.0 °F - 70.0 °F 79% 30.01 in 10.0 mi Calm Calm - N/A   Mostly Cloudy
11:51 PM 75.9 °F - 71.1 °F 85% 30.02 in 10.0 mi Calm Calm - N/A   Scattered Clouds